Time,TemperatureF,DewpointF,PressureIn,WindDirection,WindDirectionDegrees,WindSpeedMPH,WindSpeedGustMPH,Humidity,HourlyPrecipIn,Conditions,Clouds,dailyrainin,SoftwareType,DateUTC
2013-04-01 00:13:00,53.1,20.0,27.44,NW,324,0.0,0.0,27,0.00,,,0.00,weatherlink.com 1.10,2013-04-01 06:13:00,
2013-04-01 00:28:00,52.4,19.0,27.45,NW,325,0.0,0.0,27,0.00,,,0.00,weatherlink.com 1.10,2013-04-01 06:28:00,
2013-04-01 00:43:00,51.8,19.0,27.44,NW,324,0.0,0.0,27,0.00,,,0.00,weatherlink.com 1.10,2013-04-01 06:43:00,
2013-04-01 00:58:00,51.3,18.0,27.45,NW,324,0.0,0.0,27,0.00,,,0.00,weatherlink.com 1.10,2013-04-01 06:58:00,
2013-04-01 01:13:00,50.8,18.0,27.45,NW,324,0.0,0.0,27,0.00,,,0.00,weatherlink.com 1.10,2013-04-01 07:13:00,
2013-04-01 01:28:00,50.3,17.0,27.45,NW,324,0.0,0.0,27,0.00,,,0.00,weatherlink.com 1.10,2013-04-01 07:28:00,
2013-04-01 01:43:00,49.9,18.0,27.45,NW,324,0.0,0.0,28,0.00,,,0.00,weatherlink.com 1.10,2013-04-01 07:43:00,
2013-04-01 01:58:00,49.5,17.0,27.45,NW,325,0.0,0.0,28,0.00,,,0.00,weatherlink.com 1.10,2013-04-01 07:58:00,
2013-04-01 02:14:00,49.3,17.0,27.45,NW,324,0.0,0.0,28,0.00,,,0.00,weatherlink.com 1.10,2013-04-01 08:14:00,
2013-04-01 02:29:00,49.0,17.0,27.45,NW,325,0.0,0.0,28,0.00,,,0.00,weatherlink.com 1.10,2013-04-01 08:29:00,
2013-04-01 02:44:00,48.8,17.0,27.44,NW,324,0.0,0.0,28,0.00,,,0.00,weatherlink.com 1.10,2013-04-01 08:44:00,
2013-04-01 02:59:00,48.5,17.0,27.44,NW,324,0.0,0.0,28,0.00,,,0.00,weatherlink.com 1.10,2013-04-01 08:59:00,
2013-04-01 03:14:00,48.2,16.0,27.43,NW,324,0.0,0.0,28,0.00,,,0.00,weatherlink.com 1.10,2013-04-01 09:14:00,
2013-04-01 03:29:00,47.9,16.0,27.42,NW,325,0.0,0.0,28,0.00,,,0.00,weatherlink.com 1.10,2013-04-01 09:29:00,
2013-04-01 03:44:00,47.7,16.0,27.43,NW,325,0.0,0.0,28,0.00,,,0.00,weatherlink.com 1.10,2013-04-01 09:44:00,
2013-04-01 03:59:00,47.5,16.0,27.41,NW,324,0.0,0.0,28,0.00,,,0.00,weatherlink.com 1.10,2013-04-01 09:59:00,
2013-04-01 04:14:00,47.3,16.0,27.41,NW,324,0.0,0.0,28,0.00,,,0.00,weatherlink.com 1.10,2013-04-01 10:14:00,
2013-04-01 04:29:00,47.1,15.0,27.41,NW,325,0.0,0.0,28,0.00,,,0.00,weatherlink.com 1.10,2013-04-01 10:29:00,
2013-04-01 04:44:00,47.0,16.0,27.41,NW,325,0.0,0.0,29,0.00,,,0.00,weatherlink.com 1.10,2013-04-01 10:44:00,
2013-04-01 04:59:00,46.9,16.0,27.42,NW,324,0.0,0.0,29,0.00,,,0.00,weatherlink.com 1.10,2013-04-01 10:59:00,
2013-04-01 05:14:00,46.8,16.0,27.42,NW,325,0.0,0.0,29,0.00,,,0.00,weatherlink.com 1.10,2013-04-01 11:14:00,
2013-04-01 05:29:00,46.7,16.0,27.42,NW,325,0.0,0.0,29,0.00,,,0.00,weatherlink.com 1.10,2013-04-01 11:29:00,
2013-04-01 05:44:00,46.6,16.0,27.43,NW,324,0.0,0.0,29,0.00,,,0.00,weatherlink.com 1.10,2013-04-01 11:44:00,
2013-04-01 05:59:00,46.5,16.0,27.42,NW,324,0.0,0.0,29,0.00,,,0.00,weatherlink.com 1.10,2013-04-01 11:59:00,
2013-04-01 06:14:00,46.3,15.0,27.43,NW,325,0.0,0.0,29,0.00,,,0.00,weatherlink.com 1.10,2013-04-01 12:14:00,
2013-04-01 06:29:00,46.1,15.0,27.42,NW,325,0.0,0.0,29,0.00,,,0.00,weatherlink.com 1.10,2013-04-01 12:29:00,
2013-04-01 06:44:00,45.8,15.0,27.43,NW,325,0.0,0.0,29,0.00,,,0.00,weatherlink.com 1.10,2013-04-01 12:44:00,
2013-04-01 06:59:00,45.6,14.0,27.43,NW,324,0.0,0.0,28,0.00,,,0.00,weatherlink.com 1.10,2013-04-01 12:59:00,
2013-04-01 07:14:00,45.4,14.0,27.43,NW,325,0.0,0.0,28,0.00,,,0.00,weatherlink.com 1.10,2013-04-01 13:14:00,
2013-04-01 07:29:00,45.2,14.0,27.43,NW,325,0.0,0.0,28,0.00,,,0.00,weatherlink.com 1.10,2013-04-01 13:29:00,
2013-04-01 07:44:00,45.1,14.0,27.43,NW,325,0.0,0.0,28,0.00,,,0.00,weatherlink.com 1.10,2013-04-01 13:44:00,
2013-04-01 07:59:00,45.0,14.0,27.44,NW,324,0.0,0.0,29,0.00,,,0.00,weatherlink.com 1.10,2013-04-01 13:59:00,
2013-04-01 08:14:00,44.9,14.0,27.44,NW,324,0.0,0.0,29,0.00,,,0.00,weatherlink.com 1.10,2013-04-01 14:14:00,
2013-04-01 08:29:00,45.0,14.0,27.44,NW,325,0.0,0.0,29,0.00,,,0.00,weatherlink.com 1.10,2013-04-01 14:29:00,
2013-04-01 08:44:00,45.2,15.0,27.44,NW,325,0.0,0.0,29,0.00,,,0.00,weatherlink.com 1.10,2013-04-01 14:44:00,
2013-04-01 08:59:00,45.4,15.0,27.45,NW,325,0.0,0.0,29,0.00,,,0.00,weatherlink.com 1.10,2013-04-01 14:59:00,
2013-04-01 09:14:00,45.6,16.0,27.44,NW,325,0.0,0.0,30,0.00,,,0.00,weatherlink.com 1.10,2013-04-01 15:14:00,
2013-04-01 09:29:00,46.4,24.0,27.45,NNW,330,0.0,0.0,42,0.00,,,0.00,weatherlink.com 1.10,2013-04-01 15:29:00,
2013-04-01 09:44:00,47.0,24.0,27.57,NW,326,0.0,0.0,41,0.00,,,0.00,weatherlink.com 1.10,2013-04-01 15:44:00,
2013-04-01 09:59:00,47.6,29.0,27.95,NW,326,0.0,0.0,48,0.00,,,0.00,weatherlink.com 1.10,2013-04-01 15:59:00,
2013-04-01 10:14:00,48.0,34.0,28.92,NW,326,0.0,0.0,58,0.00,,,0.00,weatherlink.com 1.10,2013-04-01 16:14:00,
2013-04-01 10:29:00,48.4,34.0,29.06,NW,325,0.0,0.0,58,0.00,,,0.00,weatherlink.com 1.10,2013-04-01 16:29:00,
2013-04-01 10:44:00,48.8,35.0,29.86,NW,324,0.0,0.0,60,0.00,,,0.00,weatherlink.com 1.10,2013-04-01 16:44:00,
2013-04-01 10:59:00,49.3,35.0,29.49,NW,325,0.0,0.0,58,0.00,,,0.00,weatherlink.com 1.10,2013-04-01 16:59:00,
2013-04-01 11:15:00,50.2,35.0,29.67,NNW,329,0.0,0.0,56,0.00,,,0.00,weatherlink.com 1.10,2013-04-01 17:15:00,
2013-04-01 11:29:00,51.8,36.0,30.16,NNW,328,0.0,0.0,56,0.00,,,0.00,weatherlink.com 1.10,2013-04-01 17:29:00,
2013-04-01 11:52:00,54.7,39.0,29.50,NW,326,0.0,0.0,55,0.00,,,0.00,weatherlink.com 1.10,2013-04-01 17:52:00,
2013-04-01 12:00:00,55.7,40.0,29.53,NW,324,0.0,0.0,55,0.00,,,0.00,weatherlink.com 1.10,2013-04-01 18:00:00,
2013-04-01 12:15:00,57.6,39.0,29.38,NW,326,0.0,0.0,51,0.00,,,0.00,weatherlink.com 1.10,2013-04-01 18:15:00,
2013-04-01 12:30:00,59.5,41.0,29.83,NW,325,0.0,0.0,51,0.00,,,0.00,weatherlink.com 1.10,2013-04-01 18:30:00,
2013-04-01 12:45:00,61.4,41.0,30.14,NW,324,0.0,0.0,48,0.00,,,0.00,weatherlink.com 1.10,2013-04-01 18:45:00,
2013-04-01 13:00:00,64.5,43.0,30.14,NW,324,0.0,0.0,46,0.00,,,0.00,weatherlink.com 1.10,2013-04-01 19:00:00,
2013-04-01 13:55:00,76.8,47.0,30.13,NW,324,0.0,0.0,35,0.00,,,0.00,weatherlink.com 1.10,2013-04-01 19:55:00,
2013-04-01 14:02:00,78.2,48.0,30.13,NW,324,0.0,0.0,35,0.00,,,0.00,weatherlink.com 1.10,2013-04-01 20:02:00,
2013-04-01 14:27:00,82.8,51.0,30.12,NW,324,0.0,0.0,33,0.00,,,0.00,weatherlink.com 1.10,2013-04-01 20:27:00,
2013-04-01 14:45:00,83.5,45.0,30.11,SE,139,0.0,1.0,26,0.00,,,0.00,weatherlink.com 1.10,2013-04-01 20:45:00,
2013-04-01 15:01:00,81.0,47.0,30.11,SE,139,0.0,0.0,30,0.00,,,0.00,weatherlink.com 1.10,2013-04-01 21:01:00,